This is the latest recevied weather packets stored in our database for station/object G7UKK-10. If no packets are shown the sender has not sent any weather packets the latest 10 day(s).
| Time | Temp. | Humidity | Pressure | Rain* | Wind** | Luminosity | Snow |
|---|---|---|---|---|---|---|---|
| 1777803917 | 10° C | 97% | 1010.8 hPa | 1.27 mm | - | - | - |
| 1777803017 | 10° C | 97% | 1010.9 hPa | 1.52 mm | - | - | - |
| 1777802117 | 10° C | 97% | 1010.6 hPa | 1.27 mm | - | - | - |
| 1777801217 | 9.44° C | 97% | 1010.6 hPa | 1.02 mm | - | - | - |
| 1777800317 | 9.44° C | 97% | 1010.8 hPa | 1.02 mm | - | - | - |
| 1777799417 | 9.44° C | 97% | 1010.6 hPa | 0.76 mm | - | - | - |
| 1777798517 | 9.44° C | 97% | 1010.5 hPa | 0.25 mm | - | - | - |
| 1777797617 | 9.44° C | 97% | 1010.5 hPa | 0.25 mm | - | - | - |
| 1777796717 | 9.44° C | 97% | 1010.6 hPa | 0.51 mm | - | - | - |
| 1777795817 | 9.44° C | 97% | 1010.5 hPa | 0.51 mm | - | - | - |
| 1777794917 | 9.44° C | 97% | 1010.4 hPa | 0.51 mm | - | - | - |
| 1777794017 | 10° C | 97% | 1010.4 hPa | 0 mm | - | - | - |
| 1777793117 | 10° C | 97% | 1010.6 hPa | 0 mm | - | - | - |
| 1777792217 | 9.44° C | 97% | 1010.4 hPa | 0 mm | - | - | - |
| 1777791317 | 10° C | 97% | 1010 hPa | 0.25 mm | - | - | - |
| 1777790417 | 9.44° C | 97% | 1009.9 hPa | 1.02 mm | - | - | - |
| 1777789517 | 9.44° C | 97% | 1009.8 hPa | 1.02 mm | - | - | - |
| 1777788617 | 9.44° C | 97% | 1009.9 hPa | 0.76 mm | - | - | - |
| 1777787717 | 9.44° C | 97% | 1009.8 hPa | 0.76 mm | - | - | - |
| 1777786817 | 10° C | 96% | 1009.7 hPa | 2.54 mm | - | - | - |
| 1777785917 | 10° C | 96% | 1009.7 hPa | 2.54 mm | - | - | - |
| 1777785017 | 10° C | 96% | 1009.5 hPa | 2.29 mm | - | - | - |
| 1777784117 | 10° C | 96% | 1009.5 hPa | 1.52 mm | - | - | - |
| 1777783217 | 10° C | 96% | 1009.7 hPa | 0.51 mm | - | - | - |
| 1777782317 | 10° C | 96% | 1009.9 hPa | 0.76 mm | - | - | - |
* Rain latest hour (hover to see other rain measurements)
** Current wind speed in m/s (hover to see current wind gust speed)